Location: Old Broadwell Mill Observatory
(33.8015°N, 85.8137°W)
Time: 05:38:48
(UTC-05:00)

Gurwin Techsat 1B - Visible Passes

Search period start: 28 June 2017 00:00
Search period end: 08 July 2017 00:00
Orbit: 812 x 814 km, 98.6° (Epoch: 27 June)

Date Brightness Start Highest point End Pass type
(mag) Time Alt. Az. Time Alt. Az. Time Alt. Az.
28 Jun 8.4 02:46:58 10° N 02:52:18 78° WNW 02:52:43 73° WSW visible
29 Jun 8.8 02:24:14 10° NNE 02:29:31 63° ESE 02:29:36 63° ESE visible
29 Jun 10.5 04:06:10 10° NNW 04:08:51 14° WNW 04:10:49 12° W visible
30 Jun 9.6 02:01:45 10° NNE 02:06:30 36° E 02:06:30 36° E visible
30 Jun 10.0 03:42:13 10° NNW 03:46:19 23° WNW 03:47:42 21° W visible
01 Jul 10.4 01:39:40 10° NE 01:43:23 22° E 01:43:23 22° E visible
01 Jul 9.3 03:18:49 10° N 03:23:42 38° WNW 03:24:35 35° W visible
02 Jul 11.0 01:18:31 10° ENE 01:20:16 12° E 01:20:16 12° E visible
02 Jul 8.6 02:55:45 10° N 03:01:01 64° WNW 03:01:28 61° WSW visible
03 Jul 8.5 02:32:54 10° NNE 02:38:15 77° ESE 02:38:21 77° ESE visible
03 Jul 10.7 04:15:47 10° NW 04:17:28 11° WNW 04:19:09 10° W visible
04 Jul 9.3 02:10:19 10° NNE 02:15:13 45° E 02:15:13 45° E visible
04 Jul 10.2 03:51:16 10° NNW 03:54:58 19° WNW 03:56:26 17° W visible
05 Jul 10.1 01:48:03 10° NE 01:52:06 26° E 01:52:06 26° E visible
05 Jul 9.6 03:27:43 10° N 03:32:22 31° WNW 03:33:18 29° W visible
06 Jul 10.8 01:26:23 10° ENE 01:28:59 15° E 01:28:59 15° E visible
06 Jul 8.8 03:04:32 10° N 03:09:42 52° WNW 03:10:11 50° W visible
07 Jul 8.5 02:41:37 10° NNE 02:46:58 87° WNW 02:47:03 86° WSW visible
